This is the latest recevied weather packets stored in our database for station/object KD8DLP-13. If no packets are shown the sender has not sent any weather packets the latest 10 day(s).
| Time | Temp. | Humidity | Pressure | Rain* | Wind** | Luminosity | Snow |
|---|---|---|---|---|---|---|---|
| 1777667661 | 7.78° C | 55% | 1017 hPa | 0 mm | - | 98 W/m² | - |
| 1777667359 | 7.78° C | 57% | 1016.8 hPa | 0 mm | - | 86 W/m² | - |
| 1777667056 | 7.78° C | 56% | 1017 hPa | 0 mm | - | 92 W/m² | - |
| 1777666752 | 7.78° C | 57% | 1017.1 hPa | 0 mm | - | 120 W/m² | - |
| 1777666449 | 7.78° C | 59% | 1017 hPa | 0 mm | - | 112 W/m² | - |
| 1777666146 | 7.78° C | 58% | 1017.3 hPa | 0 mm | - | 84 W/m² | - |
| 1777665843 | 7.78° C | 58% | 1017 hPa | 0 mm | - | 74 W/m² | - |
| 1777665541 | 7.78° C | 57% | 1017.2 hPa | 0 mm | - | 80 W/m² | - |
| 1777665236 | 7.78° C | 57% | 1017 hPa | 0 mm | - | 97 W/m² | - |
| 1777664933 | 7.78° C | 58% | 1017.1 hPa | 0 mm | - | 102 W/m² | - |
| 1777664629 | 7.78° C | 59% | 1016.9 hPa | 0 mm | - | 112 W/m² | - |
| 1777664325 | 7.78° C | 59% | 1017 hPa | 0 mm | - | 145 W/m² | - |
| 1777664024 | 7.78° C | 60% | 1017 hPa | 0 mm | - | 184 W/m² | - |
| 1777663721 | 7.78° C | 59% | 1016.7 hPa | 0 mm | - | 134 W/m² | - |
| 1777663418 | 7.78° C | 60% | 1016.9 hPa | 0 mm | - | 100 W/m² | - |
| 1777663115 | 7.78° C | 59% | 1017 hPa | 0 mm | - | 101 W/m² | - |
| 1777662812 | 7.78° C | 59% | 1016.8 hPa | 0 mm | - | 103 W/m² | - |
| 1777662509 | 7.78° C | 59% | 1016.8 hPa | 0 mm | - | 119 W/m² | - |
| 1777662205 | 7.78° C | 58% | 1017 hPa | 0 mm | - | 143 W/m² | - |
| 1777661900 | 7.78° C | 59% | 1016.9 hPa | 0 mm | - | 186 W/m² | - |
| 1777661596 | 7.78° C | 62% | 1016.7 hPa | 0 mm | - | 154 W/m² | - |
| 1777661292 | 7.22° C | 62% | 1016.6 hPa | 0 mm | - | 129 W/m² | - |
| 1777660988 | 7.22° C | 62% | 1016.6 hPa | 0 mm | - | 79 W/m² | - |
| 1777660684 | 7.78° C | 60% | 1016.6 hPa | 0 mm | - | 86 W/m² | - |
| 1777660382 | 7.78° C | 59% | 1016.7 hPa | 0 mm | - | 123 W/m² | - |
* Rain latest hour (hover to see other rain measurements)
** Current wind speed in m/s (hover to see current wind gust speed)